Погода Большое Нарымское

Погода Большое Нарымское : погода сейчас, прогноз погоды и архив. Всё, что Вы хотите узнать о погоде Большое Нарымское!

Поиск расширенной информации на нашем сайте:

Полезная информация: последние блоки аренда офиса в бизнес центре ЭКО , Мироновская ул., 25 описание помещений на сайте

Другие новости

Новости СМИ2

Главная страница сайта

Новости сайта

02.10.2013

Напоминаем, что на нашем новом сайте вы можете получить высокодетализированные прогнозы погоды по пунктам России, СНГ и мира (включающие важные для авиации метеовеличины, такие как направление и скорость ветра, видимость, явления погоды, количество и форма облачности, нижняя и верхняя граница облачности), а также ознакомиться с разнообразными материалами по авиационной метеорологии и подборкой полезных ссылок на эту тему.

Сайт Метеоцентр.Азия посвящён разработке технологий оптимизации авиаметеорологического обслуживания, включая проектирование и перспективное создание нескольких автоматизированных авиаметеорологических систем:
- система выпуска высокодетальных прогностических карт явлений погоды для нижнего воздушного пространства по России и ближнему зарубежью;
- система верификации прогнозов TAF (выпускаемых синоптиками официальных АМСГ РФ и ближнего зарубежья) и AUTOTAF (выпускаемых сайтом Метеоцентр.Азия) - выявление ошибок, онлайн-сопоставление с фактической погодой METAR, автоматическое внесение коррективов в прогнозы при резком отклонении фактической погоды от прогноза, подсчёт оправдываемости прогнозов по элементам и в целом;
- система обработки, анализа и отображения авиаметеорологической информации для применения провайдерами метеорологической информации.

Рекомендуем: Самая актуальная информация напосим курс тут.

Погода Большое Нарымское - сегодня

Время (UTC), дата Ветер
(°,м/с) 
Видим.   Явления Облачность Т
(°С)
Тd
(°С)
f(%) Тe
(°С)
Pmin
(гПа)
dP
(гПа)
Po
(мм)
O2
(г/м3)
Тmin Tmax R s Состояние
почвы
00 22.05.17 тихо ()   20000 м    ясно 
+8 +4.4 78 +8  1018.5  0.2  728  284           
03 22.05.17 260 (З) 20000 м    ясно 
+15.6 +7.2 57 +17  1016.9  -0.2  728  276           
06 22.05.17 250 (З) 20000 м    6/0 верхняя 
[Ci fib]
+20.4 +6.8 41 +20  1015  -1.1  727  271  +3.5         
09 22.05.17 250 (З) 20000 м    9/0 средняя, верхняя 
[Ac lent|Ci fib]
+23.1 +5.8 33 +23  1013.1  -1.4  726  269           
12 22.05.17 250 (З) 20000 м    9/3 1500 м средняя, верхняя 
[Sc|Ac und|Ci fib]
+22.2 +7.1 38 +22  1013  -0.2  726  269           
15 22.05.17 030 (СВ) н/о    4/0 средняя, верхняя 
[Ac lent|Ci fib]
+17.1 +5.2 45 +18  1014.5  0.6  726  274    +24.5       
18 22.05.17 330 (СЗ) н/о    1/0 верхняя 
[Ci fib]
+11.7 +5.1 64 +13  1015.3  -0.1  726  280    +24.5       
21 22.05.17 330 (СЗ) н/о    4/0 средняя, верхняя 
[Ac lent|Ci fib]
+11 +5.9 71 +11  1014.4  -1  725  280           
00 23.05.17 тихо ()   20000 м    1/0 верхняя 
[Ci fib]
+10.8 +5.7 71 +11  1013.8  -0.6  725  280           
03 23.05.17 240 (ЮЗ) 20000 м    1/0 верхняя 
[Ci fib]
+19.2 +10.5 57 +23  1012.2  -0.1  725  271           
06 23.05.17 180 (Ю) 20000 м    ясно 
+23.8 +10.7 44 +27  1009.7  -1.7  723  266  +9         
09 23.05.17 180 (Ю) 20000 м    ясно 
+32.4 +13 31 +39  1006.8  -1.5  722  258           
12 23.05.17 200 (Ю) 20000 м    ясно 
+31.2 +10.7 28 +34  1006.8  -0.2  722  259           
15 23.05.17 350 (С) н/о    1/0 верхняя 
[Ci fib]
+22.7 +5.2 32 +23  1009.6  1.4  723  268    +32.5       
18 23.05.17 030 (СВ) н/о    ясно 
+19.2 +3.3 35 +20  1010.4  0.2  723  272    +32.5       
21 23.05.17 230 (ЮЗ) н/о    ясно 
+16 +5.3 49 +17  1010.8  -0.1  723  274           
00 24.05.17 040 (СВ) 20000 м    4/1 1500 м верхняя 
[Sc|Ci fib]
+11.8 +6.4 69 +12  1013.7  2.1  725  279           
03 24.05.17 220 (ЮЗ) 20000 м    9/3 1500 м средняя, верхняя 
[Sc|Ac trans|Cc]
+21 +7.7 42 +21  1014.9  2.6  727  271           
06 24.05.17 260 (З) 20000 м    10/6 1000 м кучево-дожд., средняя 
[Cb cap|Ac und]
+19.8 +12.8 64 +27  1015.6  0.6  727  271  +9.5         
09 24.05.17 220 (ЮЗ) 20000 м    8/3 1000 м кучево-дожд., средняя, верхняя 
[Cb cap|Ac trans|Cc]
+26 +10 37 +28  1012.4  -2.2  726  265           
12 24.05.17 210 (ЮЗ) 20000 м    3/1 1500 м верхняя 
[Cu hum|Ci fib]
+26.3 +9.8 35 +28  1011.1  -1.2  725  265           
15 24.05.17 030 (СВ) н/о    4/3 1500 м верхняя 
[Sc|Ci fib]
+18.4 +10.8 61 +22  1012.2  -0.1  725  272    +27       
18 24.05.17 120 (ЮВ) н/о    3/3 1500 м верхняя 
[Sc|Ci fib]
+16 +10 68 +19  1011.9  -0.7  724  274    +27       
21 24.05.17 280 (З) н/о    6/3 1500 м средняя, верхняя 
[Sc|Ac lent|Ci fib]
+14.6 +10.5 76 +18  1012.2  0.1  724  275           
00 25.05.17 010 (С) 20000 м    9/4 1500 м средняя, верхняя 
[Sc|Ac lent|Ci fib]
+15.6 +10 69 +19  1011.8  -0.3  724  274           
Время (UTC), дата Ветер
(°,м/с) 
Видим.   Явления Облачность Т
(°С)
Тd
(°С)
f(%) Тe
(°С)
Pmin
(гПа)
dP
(гПа)
Po
(мм)
O2
(г/м3)
Тmin Tmax R s Состояние
почвы

Для получения пояснительной информации подведите курсор к названию столбца.

ПОГОДА Большое Нарымское - архив

Всё, что Вы хотите узнать о погоде Большое Нарымское - удобно и подробно!

Выберите нужную дату (начиная с 1 января 2015* года) и нажмите кнопку "Найти".
Будут отображены архивные сводки погоды по пункту Большое Нарымское, начиная с указанной даты.


Отображать данные в формате CSV (для использования в таблицах Excel)


Внимание! Наш архив погоды предназначен исключительно для личного некоммерческого использования в познавательных целях. Если Вам необходимы официальные справки о состоянии погоды (для производственных, юридических, коммерческих и т.п. целей), обращайтесь в органы Росгидромета.

*Примечание: данная дата относится к архиву по метеостанциям СССР (Россия, СНГ, Балтия).
Архив по метеостанциям Зарубежной Европы и Азии (кроме Китая) хранится 10 дней, по другим регионам земного шара (Китай, Африка, Америка, Австралия, Океания) - 1 день.

Большое Нарымское - район местоположения метеостанции


Название, широта, долгота, высота метеостанции:
Большое Нарымское 49.2°ш. 84.5°д. 401 м над ур. моря [Казахстан]

Дополнительная информация

В oтличие oт бoльшинства пoгoдных сайтoв мы публикуем пoдрoбную метеoинфoрмацию в детальнoм прoфессиoнальнoм фoрмате.

Характеристики температуры и влажнoсти вoздуха измеряются на высoте 2 м в тени вдали oт зданий и деревьев.
Скoрoсть ветра измеряется на высoте 10 м (на урoвне рoста челoвека скoрoсть ветра ниже в 1.5-2 раза). Если метеoстанция нахoдится в гoрoде или в лесу, тo скoрoсть ветра занижена на 2-4 м/с пo сравнению с oткрытым местoм. Скoрoсть ветра над акватoриями крупных рек и oзёр, а также на вершинах хoлмoв на 2-5 м/с выше, чем в oбычных услoвиях.
Атмoсфернoе давление в разных тoчках местнoсти мoжет значительнo oтличаться oт давления на метеoстанции, в зависимoсти oт услoвий рельефа (при пoдъёме на 10 м давление пoнижается примернo на 1 мм рт.ст.).